TimeEST,TemperatureF,Dew PointF,Humidity,Sea Level PressureIn,VisibilityMPH,Wind Direction,Wind SpeedMPH,Gust SpeedMPH,PrecipitationIn,Events,Conditions,WindDirDegrees,DateUTC
12:54 AM,37.0,23.0,57,30.37,10.0,NE,11.5,-,N/A,,Clear,40,2013-11-20 05:54:00
1:54 AM,36.0,23.0,59,30.38,10.0,NE,5.8,-,N/A,,Clear,50,2013-11-20 06:54:00
2:54 AM,36.0,23.0,59,30.40,10.0,NE,4.6,-,N/A,,Clear,50,2013-11-20 07:54:00
3:54 AM,35.1,23.0,61,30.41,10.0,Calm,Calm,-,N/A,,Clear,0,2013-11-20 08:54:00
4:54 AM,35.1,23.0,61,30.41,10.0,North,8.1,-,N/A,,Clear,10,2013-11-20 09:54:00
5:54 AM,35.1,23.0,61,30.45,10.0,NNE,3.5,-,N/A,,Clear,20,2013-11-20 10:54:00
6:54 AM,33.1,23.0,66,30.47,10.0,NNE,8.1,-,N/A,,Clear,20,2013-11-20 11:54:00
7:54 AM,34.0,23.0,64,30.49,10.0,NE,3.5,-,N/A,,Clear,40,2013-11-20 12:54:00
8:54 AM,37.9,23.0,55,30.51,10.0,North,3.5,-,N/A,,Clear,10,2013-11-20 13:54:00
9:54 AM,39.0,23.0,53,30.51,10.0,Calm,Calm,-,N/A,,Clear,0,2013-11-20 14:54:00
10:54 AM,39.9,23.0,51,30.50,10.0,Calm,Calm,-,N/A,,Clear,0,2013-11-20 15:54:00
11:54 AM,43.0,21.9,43,30.47,10.0,Variable,4.6,-,N/A,,Clear,0,2013-11-20 16:54:00
12:54 PM,44.1,21.0,40,30.45,10.0,Calm,Calm,-,N/A,,Clear,0,2013-11-20 17:54:00
1:54 PM,45.0,21.0,39,30.43,10.0,Variable,5.8,-,N/A,,Clear,0,2013-11-20 18:54:00
2:54 PM,46.0,19.9,35,30.42,10.0,East,4.6,-,N/A,,Clear,80,2013-11-20 19:54:00
3:54 PM,46.0,21.9,39,30.43,10.0,SE,9.2,-,N/A,,Clear,130,2013-11-20 20:54:00
4:54 PM,44.1,21.0,40,30.45,10.0,ESE,10.4,-,N/A,,Clear,120,2013-11-20 21:54:00
5:54 PM,42.1,21.9,45,30.47,10.0,ESE,8.1,-,N/A,,Clear,110,2013-11-20 22:54:00
6:54 PM,39.9,21.9,49,30.48,10.0,East,3.5,-,N/A,,Partly Cloudy,80,2013-11-20 23:54:00
7:54 PM,41.0,23.0,49,30.50,10.0,East,3.5,-,N/A,,Mostly Cloudy,100,2013-11-21 00:54:00
8:54 PM,37.9,21.9,53,30.50,10.0,SE,5.8,-,N/A,,Mostly Cloudy,140,2013-11-21 01:54:00
9:54 PM,39.0,23.0,53,30.51,10.0,Calm,Calm,-,N/A,,Mostly Cloudy,0,2013-11-21 02:54:00
10:54 PM,37.9,25.0,60,30.52,10.0,Calm,Calm,-,N/A,,Overcast,0,2013-11-21 03:54:00
11:54 PM,39.0,27.0,62,30.52,10.0,Calm,Calm,-,N/A,,Overcast,0,2013-11-21 04:54:00